STARLINK-11172, 60193

Orbit data source: Space-Track

STARLINK-11172, 60193 is a payload satellite owned by SpaceX/Seattle (US) in LEO that was launched on Wed, 03 Jul 2024 UTC via an FALCON 9 launch vehicle from the Air Force Eastern Test Range (AFETR). Payload-class satellites include a variety of spacecraft equipped with specific instruments for various scientific and technological missions. These include communications satellites like Starlink; space stations such as the ISS; scientific satellites like the Hubble; Earth observation satellites from companies like Planet Labs, Umbra, and HawkEye 360; GPS; miniature CubeSats for education and research; and military/defense satellites.

Loading next visibility...
Identifier
60193, 2024-124L
Orbit
LEO
Country
Flag of USUS
Related business
Manufacturer
SpaceX/Seattle
Mission
Operational Commercial Communications
Bus & Motor
STARLINK V2MD, Unknown motor
Mass
960 kg wet, ~910 kg dry
Launch date (UTC)
2024-07-03 (1 year ago)
Launch vehicle
FALCON 9
Launch site
Air Force Eastern Test Range (AFETR)
Object type
Payload
Rocket body
Debris
Shape & HBR
Box + 2 Pan, 18.1 m
Radar Cross Section
36.964 m², Large (>1 m²)

Expand to show TLE details & history
Last TLE update: 9 hours ago

TLE from 9 hours ago
0 STARLINK-11172
1 60193U 24124L   25297.76051661  .00047869  00000-0  39730-3 0  9998
2 60193  53.1569 111.4245 0001092  96.4125 263.7018 15.69733860 75183
Epoch: 2025-10-24T18:15Z
TLE epoch observation values (Epoch: 2025-10-24T18:15:08.635Z)
Latitude
0.00006°
Longitude
164.23777°
Altitude
360.654 km
Speed
7.694 km/s
True Right ascension
07h 25m 41s
True Declination
0° 00' 00"
Sunlit
Object was in daylight at epoch
Visualization orbit readout
Latitude
Unknown
Longitude
Unknown
Altitude
Unknown
Speed
Unknown
Apparent Right ascension
Unknown
Apparent Declination
Unknown
Sunlit
N/A
Visualization observer readout
Local Sidereal Time
22:42:24
Azimuth
Unknown
Elevation
Unknown
Doppler factor
Unknown
Orbital elements
Apogee altitude
360.655 km
Perigee altitude
359.184 km
Semi-major axis
6,738.057 km
Eccentricity
0.00011
Inclination
53.1569°
RAAN
111.4245°
Arg. of periapsis
96.4125°
True anomaly
263.68936°
Mean anomaly
263.7018°
Eccentric anomaly
263.69558°
Mean motion
3.92411 °/min
Orbital period
91.74 mins
BSTAR
0.0003973
Loading maneuver chart data...
Computing Atmospheric mass density...
Loading historical data...
Loading historical data...
Loading historical data...
Loading historical data...
Loading historical data...
Loading historical data...
Loading historical data...

Documentation

Showing up to 5 results
|